TimeCST,TemperatureF,Dew PointF,Humidity,Sea Level PressureIn,VisibilityMPH,Wind Direction,Wind SpeedMPH,Gust SpeedMPH,PrecipitationIn,Events,Conditions,WindDirDegrees,DateUTC
12:53 AM,-11.9,-15.0,86,30.55,10.0,Calm,Calm,-,N/A,,Clear,0,2014-01-09 06:53:00
1:53 AM,-11.9,-17.0,78,30.56,10.0,SSW,4.6,-,N/A,,Clear,200,2014-01-09 07:53:00
2:53 AM,-18.0,-22.0,82,30.57,10.0,SW,3.5,-,N/A,,Clear,220,2014-01-09 08:53:00
3:53 AM,-16.1,-22.0,74,30.55,10.0,SW,4.6,-,N/A,,Clear,230,2014-01-09 09:53:00
4:53 AM,-18.0,-24.0,74,30.54,10.0,North,-9999.0,-,N/A,,Clear,0,2014-01-09 10:53:00
5:53 AM,-18.0,-24.0,74,30.54,10.0,South,3.5,-,N/A,,Clear,190,2014-01-09 11:53:00
6:53 AM,-18.9,-20.9,91,30.53,10.0,South,4.6,-,N/A,,Clear,170,2014-01-09 12:53:00
7:53 AM,-16.1,-20.9,79,30.52,8.0,North,-9999.0,-,N/A,,Clear,0,2014-01-09 13:53:00
8:53 AM,-15.0,-18.0,86,30.53,8.0,SSE,3.5,-,N/A,,Clear,160,2014-01-09 14:53:00
9:53 AM,-8.0,-11.0,86,30.53,5.0,Calm,Calm,-,N/A,,Clear,0,2014-01-09 15:53:00
10:53 AM,-2.9,-9.0,75,30.48,7.0,South,5.8,-,N/A,,Clear,170,2014-01-09 16:53:00
11:53 AM,1.9,-6.0,69,30.43,8.0,Calm,Calm,-,N/A,,Clear,0,2014-01-09 17:53:00
12:53 PM,8.1,-5.1,55,30.38,9.0,Calm,Calm,-,N/A,,Clear,0,2014-01-09 18:53:00
1:53 PM,10.9,-0.0,61,30.35,8.0,Calm,Calm,-,N/A,,Clear,0,2014-01-09 19:53:00
2:53 PM,12.9,3.0,65,30.35,8.0,South,4.6,-,N/A,,Clear,190,2014-01-09 20:53:00
3:28 PM,12.0,3.9,70,30.28,8.0,Calm,Calm,-,N/A,,Mostly Cloudy,0,2014-01-09 21:28:00
3:53 PM,12.9,3.9,67,30.33,8.0,Calm,Calm,-,N/A,,Overcast,0,2014-01-09 21:53:00
5:53 PM,15.1,7.0,70,30.29,8.0,SSE,4.6,-,N/A,,Overcast,150,2014-01-09 23:53:00
6:31 PM,14.0,6.1,71,30.21,9.0,Calm,Calm,-,N/A,,Scattered Clouds,0,2014-01-10 00:31:00
6:53 PM,12.9,6.1,74,30.27,8.0,Calm,Calm,-,N/A,,Clear,0,2014-01-10 00:53:00
7:53 PM,12.9,7.0,77,30.25,7.0,Calm,Calm,-,N/A,,Overcast,0,2014-01-10 01:53:00
8:53 PM,16.0,10.9,81,30.22,7.0,Calm,Calm,-,N/A,,Overcast,0,2014-01-10 02:53:00
9:10 PM,17.1,10.9,77,30.16,7.0,SSW,3.5,-,N/A,,Overcast,210,2014-01-10 03:10:00
9:49 PM,21.2,17.6,86,30.15,7.0,South,6.9,-,N/A,,Overcast,180,2014-01-10 03:49:00
9:53 PM,21.0,17.1,85,30.20,7.0,South,6.9,-,N/A,,Overcast,180,2014-01-10 03:53:00
10:00 PM,21.9,18.0,85,30.14,7.0,South,9.2,-,N/A,,Overcast,180,2014-01-10 04:00:00
10:53 PM,23.0,19.0,85,30.17,6.0,South,6.9,-,N/A,,Overcast,190,2014-01-10 04:53:00
11:18 PM,23.0,19.9,88,30.11,5.0,SSW,6.9,-,N/A,,Overcast,200,2014-01-10 05:18:00
11:33 PM,23.0,19.9,88,30.11,5.0,South,8.1,-,N/A,,Overcast,190,2014-01-10 05:33:00
11:53 PM,23.0,19.9,88,30.15,4.0,SSW,8.1,-,N/A,,Overcast,200,2014-01-10 05:53:00